FENGYUN 1C DEB

Satellite information

Favourite Embed

Satellite Type and Status

DEBRISIN ORBIT

Key statistics

Satellite FENGYUN 1C DEB at a glance.

Uptime

9610

Days in orbit

Revolutions

≈ 14.4

Per day

Orbit

SSO

Sun Synchronous Orbit

Inclination

98.9

Latest

Satellite identification and parameters

Extended collection of information and parameters for FENGYUN 1C DEB.

Object identification

Identified? True

Debris? True

Object name: FENGYUN 1C DEB

International designator: 1999-025EPD

Object number (NORAD): 37928

Object ID (CCSDS): 37928

Country: PEOPLES REPUBLIC OF CHINA (PRC)

Current information (Y/N): Y

RCS size: SMALL

Orbital parameters

Period: 100.239 minutes

Inclination: 98.929 deg

SMA: 7147.99 km

Apoapsis: 822.048 km

Periapsis: 717.662 km

RAAN: 113.7501 deg

Eccentricy: 0.00730172

Argument of periapsis: 339.573 deg

Mean anomaly: 20.2538 deg

Mean motion: 14.36570229 rev/day

Mean motion (dot): 0.00002341 rev/day2

B* drag term: 0.00078831182 1/REarth

Two-line elements (TLE)

Creation date: Aug. 31, 2025, 2:26 a.m.

Reference frame: TEME

Reference center: EARTH

Epoch: Aug. 30, 2025, 9:57 p.m. UTC

TLE line 0: 0 FENGYUN 1C DEB

TLE line 1: 1 37928U 99025EPD 25242.91514991 .00002341 00000-0 78831-3 0 9998

TLE line 2: 2 37928 98.9290 113.7501 0073017 339.5730 20.2538 14.36570229797017

Live tracking on map

Real-time ground track for satellite FENGYUN 1C DEB.

In-orbit conjunctions

A list of the most updated potential collisions computed for object FENGYUN 1C DEB.

Target Orbit TCA Probability of collision Miss distance Type
FENGYUN 1C DEB SSO 2024-11-13 11:59:44 0.0009882699 125.0 (m) DEBRIS
CZ-6A DEB LEO 2024-11-12 19:52:23 0.0001819832 358.0 (m) DEBRIS
COSMOS 374 DEB LEO 2024-11-09 15:33:51 0.0007446192 283.0 (m) DEBRIS
ADEOS SSO 2024-09-26 18:35:24 0.000108348 827.0 (m) PAYLOAD
ARIANE 4O DEB SSO 2024-07-25 02:02:41 0.0001722252 150.0 (m) DEBRIS

Associated space launch

Chinese polar orbiting meteorological satellite

FENGYUN 1C DEB was lifted into orbit during the mission ‘Long March 4B | Feng Yun 1C’, on board a Long March 4B space rocket.

The launch took place on May 10, 1999, 1:33 a.m. from Launch Complex 7.

For more information about the launch, click the button.

Launch to space Long March 4B | Feng Yun 1C
Long March 4B | Feng Yun 1C

Agency: N/A

Status: Launch Successful

Launch date: May 10, 1999, 1:33 a.m. UTC

Rocket: Long March 4B

Launch pad: Launch Complex 7

Location: Taiyuan Satellite Launch Center, People's Republic of China

...

Latest news about this satellite

There are no fresh news available about this satellite. Check back as we update our databases every day.


Newsletter sign-up

Weekly statistics, charts and insights to help you stay on top of the space industry.